SEEDS II (CO-66)

Last updated on Sat Dec 13 2025 00:03:09 GMT+0000 (Coordinated Universal Time)

1 32791U 08021J 25346.24750352 .00026058 00000+0 10375-2 0 9999 2 32791 97.7444 331.3757 0001251 213.6464 146.4694 15.25228311958728
UTC large
Height (km)
Speed (km/s)
/
Latitude / Longitude
Inclination (degrees)
Orbital Period (minutes)
Azimuth
Elevation
Range (km)
Doppler Factor

Next 0 passes for location: London (51.5072 / 0.1276)

Sorry there are no passes over London.